Regional Weather Roundup
Issued by NWS

Home | Current Version | Previous Version | Text Only | Print | Product List | Glossary On
Versions: 1 2 3 4 5 6 7 8 9 10 11 12 13 14 15 16 17 18 19 20 21 22 23 24 25 26 27 28 29 30 31 32 33 34 35 36 37 38 39 40 41 42 43 44 45 46 47 48 49 50
000
ASUS45 KCYS 021510
RWRWY

WYOMING REGIONAL WEATHER ROUNDUP
NATIONAL WEATHER SERVICE CHEYENNE WY
900 AM MDT TUE JUN 02 2015

NOTE:  "FAIR" INDICATES FEW OR NO CLOUDS BELOW 12,000 FEET
WITH NO SIGNIFICANT WEATHER AND/OR OBSTRUCTIONS TO VISIBILITY.

WYZ001-021600-
YELLOWSTONE NATIONAL PARK

CITY           SKY/WX    TMP DP  RH WIND       PRES   REMARKS
LK YELLOWSTONE   N/A     38  37  97 VRB3      30.14F
W YELLOWSTONE  NOT AVBL

$$
WYZ002>013-054>058-071-098>099-021600-
NORTHERN WYOMING

CITY           SKY/WX    TMP DP  RH WIND       PRES   REMARKS
JACKSON        MOSUNNY   46  45  93 CALM      30.11R
CODY           FAIR      59  46  63 NE3       29.96R
GREYBULL       FAIR      60  51  72 CALM      29.93S
WORLAND        FAIR      63  51  65 CALM      29.94R
SHERIDAN       FAIR      64  52  64 CALM      29.91S
BUFFALO        FAIR      61  51  70 SE6       29.95R
GILLETTE       FAIR      64  53  67 CALM      29.91S
HULETT         FAIR      64  54  68 W5        29.90F
NEWCASTLE      FAIR      68  46  45 CALM      29.90F

$$
WYZ014>020-022>026-101>103-021600-
CENTRAL WYOMING

CITY           SKY/WX    TMP DP  RH WIND       PRES   REMARKS
BIG PINEY      FAIR      55  38  52 N6        30.10F
PINEDALE       FAIR      54  39  58 CALM      30.11S
DUBOIS         PTSUNNY   54  34  47 NW3       30.08R
LANDER         FAIR      59  45  59 CALM      29.99S
RIVERTON       FAIR      59  46  62 S3        30.00R
CASPER         FAIR      64  49  57 SW10      29.97S
DOUGLAS        FAIR      64  52  64 NW7       29.95S

$$
WYZ021-027>030-104>119-021600-
SOUTHERN WYOMING

CITY           SKY/WX    TMP DP  RH WIND       PRES   REMARKS
EVANSTON       FAIR      55  38  52 SW3       30.09R
KEMMERER       FAIR      55  39  54 N5        30.10S
FORT BRIDGER   SUNNY     54  43  66 CALM      30.11S
ROCK SPRINGS   FAIR      57  43  59 NW3       30.06S
DIXON          FAIR      60  42  52 CALM      30.10S
RAWLINS        FAIR      58  48  69 CALM      30.07S
SARATOGA       FAIR      63  43  48 SE9       30.09S
LARAMIE        FAIR      58  46  64 SE6       30.09F
CHEYENNE       FAIR      63  50  62 SW3       30.01F
TORRINGTON     FAIR      65  58  78 S9        29.91F
PINE BLUFFS    FAIR      61  55  82 CALM      29.99S

$$


USA.gov is the U.S. government's official web portal to all federal, state and local government web resources and services.